Tracking 31027 objects as of 19-Jul-2025
HD Live streaming from Space Station
objects crossing your sky now

HOT BIRD 1

Track HOT BIRD 1 now!
HOT BIRD 1 is classified as:


NORAD ID: 23537
Int'l Code: 1995-016B
Perigee: 36,044.2 km
Apogee: 36,081.3 km
Inclination: 12.7 °
Period: 1,449.9 minutes
Semi major axis: 42433 km
RCS: 7.9621 m2 (large)
Launch date: March 28, 1995
Source: European Telecommunications Satellite Organization (EUTE)
Launch site: FRENCH GUIANA (FRGUI)

Cable programming; direct-to-home broadcasting; 16 channels, Western Europe
Your satellite tracking list
BELINTERSAT 1
Track 1 satellite(s)




NASA's NSSDC Master Catalog

Two Line Element Set (TLE):
1 23537U 95016B   25199.36656955 -.00000306  00000-0  00000-0 0  9992
2 23537  12.6709  25.1292 0004380  95.6844  99.5407  0.99319805110391
Source of the keplerian elements: AFSPC